Ithaca, NY

2:38 AM EDT on October 17, 2017 (GMT -0400)
Tompkins County

Weather History for KITH - December, 2013

Change the Weather History Date:

Wednesday, December 11, 2013

  Actual Average Record
Temperature  
Mean Temperature 22 °F -  
Max Temperature 26 °F 38 °F 64 °F (1966)
Min Temperature 15 °F 23 °F -10 °F (1958)
Degree Days  
Heating Degree Days 44    
Moisture  
Dew Point 15 °F    
Average Humidity 80    
Maximum Humidity 93    
Minimum Humidity 63    
Precipitation  
Precipitation 0.00 in - - ()
Sea Level Pressure  
Sea Level Pressure 30.17 in    
Wind  
Wind Speed 6 mph (WNW)    
Max Wind Speed 21 mph    
Max Gust Speed 26 mph    
Visibility 7 miles    
Events Snow    
Averages and records for this station are not official NWS values.
T = Trace of Precipitation, MM = Missing Value Source: NWS Daily Summary

Daily Weather History Graph

Daily Weather History Graph

Search for Another Location

Airport or City:

Trip Planner

Search our weather history database for the weather conditions in past years. The results will help you decide how hot, cold, wet, or windy it might be!

Date:

Astronomy

Dec. 11, 2013 Rise Set
Actual Time 7:25 AM EST 4:32 PM EST
Civil Twilight 6:53 AM EST 5:04 PM EST
Nautical Twilight 6:18 AM EST 5:40 PM EST
Astronomical Twilight 5:44 AM EST 6:14 PM EST
Moon 1:10 PM EST (12/11) 1:38 AM EST (12/11)
Length of Visible Light 10h 11m
Length of Day
9h 07m
Waxing Gibbous, 71% of the Moon is Illuminated
Dec 11
Waxing Gibbous
Dec 17
Full
Dec 25
Last Quarter
Jan 1
New
Jan 7
First Quarter

Hourly Weather History & Observations

Time (EST) Temp. Windchill Dew Point Humidity Pressure Visibility Wind Dir Wind Speed Gust Speed Precip Events Conditions
12:22 AM 19.4 °F 8.6 °F 12.2 °F 74% 30.04 in 10.0 mi NW 9.2 mph - 0.00 in Snow Light Snow
12:56 AM 20.1 °F 13.6 °F 14.0 °F 77% 30.10 in 7.0 mi NNW 4.6 mph - 0.00 in Snow Light Snow
1:15 AM 19.4 °F 14.3 °F 14.0 °F 80% 30.06 in 3.0 mi NW 3.5 mph - 0.00 in Snow Light Snow
1:25 AM 19.4 °F - 15.8 °F 86% 30.06 in 2.5 mi Calm Calm - 0.00 in Snow Light Snow
1:44 AM 19.4 °F - 15.8 °F 86% 30.06 in 1.8 mi Calm Calm - 0.00 in Snow Light Snow
1:56 AM 19.0 °F 13.9 °F 17.1 °F 92% 30.12 in 2.5 mi NW 3.5 mph - 0.00 in Snow Light Snow
2:31 AM 19.4 °F - 15.8 °F 86% 30.08 in 4.0 mi Calm Calm - 0.00 in Snow Light Snow
2:56 AM 19.0 °F - 16.2 °F 89% 30.13 in 5.0 mi Calm Calm - 0.00 in Snow Light Snow
3:04 AM 17.6 °F - 15.8 °F 93% 30.08 in 7.0 mi Calm Calm - 0.00 in Snow Light Snow
3:11 AM 19.4 °F - 15.8 °F 86% 30.08 in 9.0 mi Calm Calm - 0.00 in Snow Light Snow
3:56 AM 19.0 °F - 17.1 °F 92% 30.14 in 10.0 mi Calm Calm - 0.00 in   Overcast
4:56 AM 22.1 °F 13.7 °F 16.2 °F 78% 30.15 in 10.0 mi WNW 6.9 mph - 0.00 in Snow Light Snow
5:56 AM 20.1 °F 15.2 °F 18.1 °F 92% 30.19 in 5.0 mi NW 3.5 mph - 0.00 in Snow Light Snow
6:23 AM 19.4 °F 12.8 °F 17.6 °F 93% 30.14 in 5.0 mi North 4.6 mph - 0.00 in Snow Light Snow Showers
6:56 AM 20.1 °F - 17.1 °F 88% 30.20 in 6.0 mi Calm Calm - 0.00 in Snow Light Snow Showers
7:56 AM 20.1 °F - 18.1 °F 92% 30.22 in 10.0 mi Calm Calm - 0.00 in   Overcast
8:56 AM 23.0 °F 13.1 °F 16.2 °F 75% 30.23 in 10.0 mi West 9.2 mph - 0.00 in Snow Light Snow Showers
9:56 AM 23.0 °F 11.1 °F 14.0 °F 68% 30.23 in 10.0 mi West 12.7 mph - 0.00 in Snow Light Snow Showers
10:56 AM 24.1 °F 14.4 °F 15.1 °F 69% 30.23 in 10.0 mi WSW 9.2 mph - 0.00 in Snow Light Snow Showers
11:56 AM 24.1 °F 17.0 °F 14.0 °F 65% 30.21 in 10.0 mi SW 5.8 mph - 0.00 in   Overcast
12:56 PM 25.2 °F 20.9 °F 14.0 °F 63% 30.19 in 10.0 mi West 3.5 mph - 0.00 in   Overcast
1:56 PM 26.1 °F 16.2 °F 15.1 °F 63% 30.17 in 10.0 mi WNW 10.4 mph - 0.00 in Snow Light Snow Showers
2:56 PM 26.1 °F 14.5 °F 16.2 °F 66% 30.17 in 6.0 mi WSW 13.8 mph 20.7 mph 0.00 in Snow Light Snow Showers
3:56 PM 25.2 °F 15.1 °F 16.2 °F 69% 30.17 in 10.0 mi WNW 10.4 mph - 0.00 in Snow Light Snow Showers
4:56 PM 25.2 °F 14.4 °F 15.1 °F 66% 30.18 in 8.0 mi West 11.5 mph - 0.00 in Snow Light Snow Showers
5:44 PM 23.0 °F 13.1 °F 19.4 °F 86% 30.15 in 1.8 mi NNW 9.2 mph - 0.00 in Snow Light Snow Showers
5:56 PM 22.1 °F 10.6 °F 19.0 °F 88% 30.21 in 1.5 mi NW 11.5 mph - 0.00 in Snow Light Snow
6:56 PM 21.0 °F 10.6 °F 19.0 °F 92% 30.22 in 1.5 mi NW 9.2 mph - 0.00 in Snow Light Snow
7:56 PM 20.1 °F 8.1 °F 18.1 °F 92% 30.23 in 2.0 mi NNW 11.5 mph - 0.00 in Snow Light Snow
8:12 PM 19.4 °F 6.0 °F 17.6 °F 93% 30.17 in 2.0 mi NW 13.8 mph - 0.00 in Snow Light Snow
8:56 PM 20.1 °F 4.6 °F 16.2 °F 85% 30.24 in 4.0 mi NNW 19.6 mph 24.2 mph 0.00 in Snow Light Snow
9:56 PM 18.1 °F 1.6 °F 9.1 °F 68% 30.25 in 10.0 mi NW 20.7 mph 26.5 mph 0.00 in   Overcast
10:09 PM 17.6 °F 1.7 °F 8.6 °F 68% 30.20 in 10.0 mi NW 18.4 mph - N/A   Overcast
10:23 PM 17.6 °F 0.9 °F 8.6 °F 68% 30.20 in 10.0 mi NW 20.7 mph 25.3 mph N/A   Overcast
10:56 PM 17.1 °F 2.0 °F 8.1 °F 68% 30.26 in 10.0 mi NW 16.1 mph 25.3 mph N/A   Scattered Clouds
11:56 PM 15.1 °F 6.4 °F 7.2 °F 71% 30.28 in 10.0 mi WNW 5.8 mph - N/A   Mostly Cloudy